GW0833 Weather Reports


time (UTC)temp
F
wind
direction
speed
knots
gust
knots
rain 1hr
in
rain 24hr
in
rain mn
in
humidity
%
barometer
mb
20220811233328 71 70 0.9 5.2 0.00 0.00 0.00 58 1021.0
20220811233032 70 38 1.7 5.2 0.00 0.00 0.00 58 1020.2
20220811232344 71 56 2.6 7.8 0.00 0.00 0.00 57 1020.9
20220811231558 71 59 0.0 8.7 0.00 0.00 0.00 58 1020.1
20220811231319 71 61 4.3 8.7 0.00 0.00 0.00 59 1021.0
20220811230357 72 51 3.5 6.1 0.00 0.00 0.00 57 1020.9
20220811230101 71 21 0.9 6.1 0.00 0.00 0.00 59 1020.2
20220811225334 72 76 2.6 7.0 0.00 0.00 0.00 59 1021.1
20220811224546 71 55 0.0 6.1 0.00 0.00 0.00 59 1020.3
20220811224336 72 36 0.9 6.1 0.00 0.00 0.00 58 1021.1
20220811223325 72 44 3.5 7.8 0.00 0.00 0.00 57 1021.1
20220811223018 72 53 3.5 7.8 0.00 0.00 0.00 57 1020.4
20220811222411 73 69 1.7 7.8 0.00 0.00 0.00 56 1021.2
20220811222329 73 69 1.7 7.8 0.00 0.00 0.00 56 1021.2
20220811221604 73 55 1.7 6.1 0.00 0.00 0.00 55 1020.3
20220811221402 73 44 0.0 2.6 0.00 0.00 0.00 57 1021.1
20220811220359 72 25 3.5 8.7 0.00 0.00 0.00 56 1021.2
20220811220005 72 48 4.3 8.7 0.00 0.00 0.00 56 1020.5
20220811215314 72 19 1.7 8.7 0.00 0.00 0.00 58 1021.2
20220811214557 71 30 0.9 9.6 0.00 0.00 0.00 59 1020.5
20220811214358 72 56 1.7 9.6 0.00 0.00 0.00 58 1021.2
20220811213311 72 47 3.5 10.4 0.00 0.00 0.00 58 1021.1
20220811213040 72 44 3.5 10.4 0.00 0.00 0.00 58 1020.3
20220811212411 72 119 0.9 8.7 0.00 0.00 0.00 58 1021.1
20220811211549 71 53 3.5 10.4 0.00 0.00 0.00 56 1020.3
20220811211325 72 57 4.3 10.4 0.00 0.00 0.00 57 1021.1
20220811210316 72 61 2.6 8.7 0.00 0.00 0.00 58 1021.2
20220811210030 72 98 0.9 8.7 0.00 0.00 0.00 60 1020.4
20220811205317 72 14 3.5 10.4 0.00 0.00 0.00 60 1021.2
20220811204506 71 54 3.5 10.4 0.00 0.00 0.00 59 1020.4
20220811204313 72 61 3.5 10.4 0.00 0.00 0.00 60 1021.2
20220811203323 72 68 2.6 12.2 0.00 0.00 0.00 59 1021.1
20220811203054 72 37 6.1 12.2 0.00 0.00 0.00 59 1020.4
20220811202407 72 67 2.6 9.6 0.00 0.00 0.00 60 1021.3
20220811201505 71 80 2.6 10.4 0.00 0.00 0.00 60 1020.5
20220811201323 72 53 5.2 10.4 0.00 0.00 0.00 60 1021.4
20220811200400 72 56 2.6 9.6 0.00 0.00 0.00 61 1021.4
20220811200017 72 88 3.5 9.6 0.00 0.00 0.00 61 1020.7
20220811195314 72 25 1.7 11.3 0.00 0.00 0.00 63 1021.5
20220811194549 71 59 5.2 12.2 0.00 0.00 0.00 62 1020.6
20220811194354 72 42 3.5 12.2 0.00 0.00 0.00 61 1021.5
20220811193327 72 43 4.3 12.2 0.00 0.00 0.00 65 1021.6
20220811193011 71 39 2.6 12.2 0.00 0.00 0.00 66 1020.8
20220811192323 72 124 2.6 9.6 0.00 0.00 0.00 65 1021.7
20220811191507 72 59 3.5 12.2 0.00 0.00 0.00 66 1021.0
20220811191318 72 72 0.9 12.2 0.00 0.00 0.00 67 1021.7
20220811190335 72 63 6.1 11.3 0.00 0.00 0.00 61 1021.7
20220811190007 71 62 2.6 11.3 0.00 0.00 0.00 66 1020.8
20220811185358 72 98 3.5 13.0 0.00 0.00 0.00 67 1021.5
20220811184547 71 44 6.1 13.0 0.00 0.00 0.00 63 1020.7
20220811184337 72 60 4.3 10.4 0.00 0.00 0.00 64 1021.6
20220811183348 72 63 7.0 12.2 0.00 0.00 0.00 64 1021.6
20220811183005 72 58 4.3 13.0 0.00 0.00 0.00 63 1020.8
20220811182351 72 19 7.0 13.0 0.00 0.00 0.00 62 1021.5
20220811181539 72 29 2.6 11.3 0.00 0.00 0.00 63 1020.7
20220811181319 72 28 7.0 11.3 0.00 0.00 0.00 63 1021.6
20220811180316 72 58 0.9 11.3 0.00 0.00 0.00 65 1021.5
20220811180021 71 20 5.2 11.3 0.00 0.00 0.00 64 1020.8
20220811175312 72 44 2.6 11.3 0.00 0.00 0.00 63 1021.7
20220811174524 71 55 4.3 12.2 0.00 0.00 0.00 62 1020.8
20220811174321 72 38 7.0 12.2 0.00 0.00 0.00 61 1021.7
20220811173339 72 70 4.3 12.2 0.00 0.00 0.00 58 1021.7
20220811173023 71 68 5.2 13.9 0.00 0.00 0.00 58 1020.9
20220811172316 72 78 5.2 12.2 0.00 0.00 0.00 59 1021.8
20220811171507 72 11 6.1 13.9 0.00 0.00 0.00 58 1021.0
20220811171335 72 14 2.6 13.9 0.00 0.00 0.00 60 1021.8
20220811170351 72 360 7.0 13.9 0.00 0.00 0.00 59 1021.9
20220811170012 71 32 3.5 13.9 0.00 0.00 0.00 61 1021.1
20220811165324 71 63 4.3 13.0 0.00 0.00 0.00 61 1021.9
20220811164503 71 349 5.2 13.0 0.00 0.00 0.00 61 1021.1
20220811164408 72 63 6.1 13.0 0.00 0.00 0.00 61 1022.0
20220811164326 72 63 6.1 13.0 0.00 0.00 0.00 61 1022.0
20220811163315 72 57 4.3 11.3 0.00 0.00 0.00 59 1022.0
20220811163048 72 67 2.6 10.4 0.00 0.00 0.00 60 1021.2
20220811162316 72 5 5.2 12.2 0.00 0.00 0.00 63 1022.0
20220811161610 71 30 1.7 8.7 0.00 0.00 0.00 64 1021.1
20220811161358 71 76 3.5 8.7 0.00 0.00 0.00 65 1022.0
20220811160326 71 67 3.5 9.6 0.00 0.00 0.00 65 1022.2
20220811160013 70 5 2.6 11.3 0.00 0.00 0.00 67 1021.3
20220811155342 71 348 6.1 11.3 0.00 0.00 0.00 64 1022.1
20220811154553 70 27 1.7 11.3 0.00 0.00 0.00 66 1021.2
20220811154319 70 37 2.6 11.3 0.00 0.00 0.00 66 1022.1
20220811153336 71 16 4.3 10.4 0.00 0.00 0.00 65 1021.9
20220811153010 70 5 0.0 8.7 0.00 0.00 0.00 67 1021.1
20220811152312 70 54 0.9 10.4 0.00 0.00 0.00 70 1021.9
20220811151529 70 333 3.5 10.4 0.00 0.00 0.00 68 1021.0
20220811151416 70 355 1.7 10.4 0.00 0.00 0.00 70 1021.9
20220811150345 69 355 2.6 8.7 0.00 0.00 0.00 70 1021.9
20220811150103 68 28 0.9 9.6 0.00 0.00 0.00 72 1020.9
20220811145348 68 10 4.3 11.3 0.00 0.00 0.00 71 1021.8
20220811144529 68 338 3.5 10.4 0.00 0.00 0.00 71 1020.9
20220811144343 68 355 3.5 10.4 0.00 0.00 0.00 72 1021.7
20220811143342 68 69 2.6 12.2 0.00 0.00 0.00 73 1021.6
20220811143045 67 51 4.3 12.2 0.00 0.00 0.00 72 1020.7
20220811142337 67 32 5.2 13.0 0.00 0.00 0.00 73 1021.5
20220811141605 66 331 5.2 13.9 0.00 0.00 0.00 74 1020.7
20220811141356 67 360 5.2 13.9 0.00 0.00 0.00 75 1021.5
20220811140351 67 54 6.1 13.0 0.00 0.00 0.00 75 1021.4
20220811140018 66 47 1.7 13.0 0.00 0.00 0.00 75 1020.6
20220811135415 66 15 5.2 12.2 0.00 0.00 0.00 75 1021.4
20220811134536 66 10 0.9 10.4 0.00 0.00 0.00 75 1020.5
20220811134410 66 57 2.6 12.2 0.00 0.00 0.00 75 1021.4
20220811133326 66 38 1.7 11.3 0.00 0.00 0.00 75 1021.5
20220811133033 65 350 4.3 13.9 0.00 0.00 0.00 75 1020.6
20220811132323 66 35 5.2 11.3 0.00 0.00 0.00 75 1021.4
20220811131526 65 38 5.2 9.6 0.00 0.00 0.00 75 1020.5
20220811131400 65 339 4.3 8.7 0.00 0.00 0.00 75 1021.3
20220811131317 65 339 4.3 8.7 0.00 0.00 0.00 75 1021.3
20220811063329 70 32 1.7 9.6 0.00 0.00 0.00 65 1019.9
20220811063038 69 11 2.6 9.6 0.00 0.00 0.00 66 1019.0
20220811062351 70 44 1.7 11.3 0.00 0.00 0.00 66 1019.7
20220811061559 70 355 3.5 12.2 0.00 0.00 0.00 66 1018.9
20220811061507 70 355 3.5 12.2 0.00 0.00 0.00 66 1018.9
20220811061355 70 350 5.2 12.2 0.00 0.00 0.00 66 1019.7
20220811060410 71 12 1.7 9.6 0.00 0.00 0.00 66 1019.7
20220811060032 70 360 3.5 8.7 0.00 0.00 0.00 67 1018.9
20220811055321 71 28 1.7 10.4 0.00 0.00 0.00 68 1019.7
20220811054521 71 59 2.6 11.3 0.00 0.00 0.00 68 1018.8
20220811054323 71 5 1.7 11.3 0.00 0.00 0.00 68 1019.7
20220811053401 72 13 1.7 7.8 0.00 0.00 0.00 67 1019.7
20220811053029 71 24 3.5 7.8 0.00 0.00 0.00 67 1018.8
20220811052317 72 16 0.9 12.2 0.00 0.00 0.00 69 1019.6
20220811051555 71 342 0.9 7.8 0.00 0.00 0.00 76 1018.7
20220811051321 72 46 0.9 7.8 0.00 0.00 0.00 76 1019.6
20220811050357 72 50 1.7 6.1 0.00 0.00 0.00 79 1019.6
20220811050058 72 35 0.0 6.1 0.00 0.00 0.00 79 1018.8
20220811045338 72 23 2.6 7.0 0.00 0.00 0.00 80 1019.6
20220811044540 72 40 0.0 5.2 0.00 0.00 0.00 80 1018.7
20220811044403 72 44 0.0 7.0 0.00 0.00 0.00 80 1019.6
20220811044321 72 44 0.0 7.0 0.00 0.00 0.00 80 1019.6
20220811043335 72 40 1.7 4.3 0.00 0.00 0.00 80 1019.3
20220811043101 72 46 0.0 5.2 0.00 0.00 0.00 80 1018.5
20220811043005 72 46 0.0 5.2 0.00 0.00 0.00 80 1018.4
20220811042334 72 46 0.9 7.0 0.00 0.00 0.00 79 1019.2
20220811041655 72 31 0.9 6.1 0.00 0.00 0.00 79 1018.4
20220811041400 73 59 1.7 7.8 0.00 0.00 0.00 79 1019.3
20220811040334 73 57 2.6 10.4 0.00 0.00 0.00 80 1019.2
20220811040035 73 51 2.6 10.4 0.00 0.00 0.00 80 1018.2
20220811035355 73 64 4.3 10.4 0.00 0.00 0.00 80 1019.0
20220811034605 73 48 1.7 9.6 0.00 0.00 0.00 81 1018.1
20220811034505 73 45 2.6 9.6 0.00 0.00 0.00 81 1018.1
20220811034331 73 38 4.3 9.6 0.00 0.00 0.00 81 1018.9
20220811033322 73 56 1.7 12.2 0.00 0.00 0.00 81 1018.7
20220811033018 73 61 4.3 12.2 0.00 0.00 0.00 80 1017.8
20220811032317 74 24 5.2 9.6 0.00 0.00 0.00 80 1018.5
20220811031331 74 72 4.3 9.6 0.00 0.00 0.00 80 1018.5
20220811030321 74 26 3.5 9.6 0.00 0.00 0.00 80 1018.6
20220811030049 74 66 2.6 9.6 0.00 0.00 0.00 80 1017.7
20220811025345 76 23 5.2 10.4 0.00 0.00 0.00 79 1018.3
20220811024600 76 73 2.6 9.6 0.00 0.00 0.00 71 1017.4
20220811024405 76 36 1.7 9.6 0.00 0.00 0.00 71 1018.2
20220811023339 77 330 0.9 7.8 0.00 0.00 0.00 70 1018.1
20220811023107 76 16 0.9 7.8 0.00 0.00 0.00 70 1017.2
20220811022319 77 355 2.6 7.0 0.00 0.00 0.00 70 1017.9
20220811021529 77 351 0.9 7.0 0.00 0.00 0.00 69 1017.1
20220811021344 77 355 2.6 7.8 0.00 0.00 0.00 69 1017.9
20220811020341 78 335 4.3 10.4 0.00 0.00 0.00 69 1017.8
20220811020023 77 11 0.0 8.7 0.00 0.00 0.00 68 1016.9
20220811015340 78 304 2.6 10.4 0.00 0.00 0.00 68 1017.7
20220811014550 78 351 1.7 10.4 0.00 0.00 0.00 67 1016.9
20220811014324 78 355 2.6 10.4 0.00 0.00 0.00 67 1017.6
20220811013338 79 256 0.0 3.5 0.00 0.00 0.00 68 1017.4
20220811013023 78 255 0.0 3.5 0.00 0.00 0.00 68 1016.5
20220811012341 79 255 0.0 4.3 0.00 0.00 0.00 68 1017.3
20220811011537 78 254 0.0 2.6 0.00 0.00 0.00 68 1016.4
20220811011325 79 251 0.0 1.7 0.00 0.00 0.00 68 1017.1
20220811010402 79 251 0.0 3.5 0.00 0.00 0.00 66 1016.9
20220811010049 79 251 0.0 4.3 0.00 0.00 0.00 66 1016.1
20220811005337 80 257 0.0 7.0 0.00 0.00 0.00 65 1016.7
20220811004508 80 252 0.0 3.5 0.00 0.00 0.00 64 1016.0
20220811004337 80 260 0.0 6.1 0.00 0.00 0.00 64 1016.7
20220811003353 81 258 0.9 6.1 0.00 0.00 0.00 62 1016.7
20220811003107 81 248 0.9 3.5 0.00 0.00 0.00 61 1015.9
20220811002336 82 299 0.9 3.5 0.00 0.00 0.00 57 1016.6
20220811001524 82 282 1.7 6.1 0.00 0.00 0.00 58 1015.9
20220811001333 82 255 0.0 6.1 0.00 0.00 0.00 59 1016.7
20220811000400 83 305 0.0 8.7 0.00 0.00 0.00 56 1016.7
20220811000019 82 312 0.9 8.7 0.00 0.00 0.00 56 1016.0
20220810235359 83 264 0.9 7.0 0.00 0.00 0.00 59 1016.8
20220810234529 83 281 0.0 5.2 0.00 0.00 0.00 58 1015.9
20220810234359 83 270 0.0 5.2 0.00 0.00 0.00 58 1016.7